| time (UTC) | temp F | wind direction | speed MPH | gust MPH | rain 1hr in | rain 24hr in | rain mn in | humidity % | barometer mb |
| 20260505130211 | 60 | 244 | 3.0 | 3.0 | 0.00 | 0.00 | 0.00 | 83 | 1004.7 |
| 20260505124701 | 60 | 269 | 5.0 | 7.0 | 0.00 | 0.00 | 0.00 | 83 | 1004.7 |
| 20260505124157 | 59 | 223 | 1.0 | 2.0 | 0.00 | 0.00 | 0.00 | 84 | 1004.7 |
| 20260505123653 | 59 | 240 | 1.0 | 1.0 | 0.00 | 0.00 | 0.00 | 84 | 1004.7 |
| 20260505123150 | 59 | 232 | 3.0 | 3.0 | 0.00 | 0.00 | 0.00 | 84 | 1004.5 |
| 20260505122647 | 59 | 251 | 2.0 | 2.0 | 0.00 | 0.00 | 0.00 | 84 | 1004.2 |
| 20260505122144 | 59 | 247 | 1.0 | 1.0 | 0.00 | 0.00 | 0.00 | 83 | 1004.2 |
| 20260505121641 | 59 | 247 | 2.0 | 2.0 | 0.00 | 0.00 | 0.00 | 83 | 1004.1 |
| 20260505121137 | 59 | 303 | 1.0 | 2.0 | 0.00 | 0.00 | 0.00 | 82 | 1004.3 |
| 20260505120633 | 59 | 248 | 2.0 | 2.0 | 0.00 | 0.00 | 0.00 | 82 | 1004.0 |
| 20260505120129 | 60 | 228 | 4.0 | 5.0 | 0.00 | 0.00 | 0.00 | 81 | 1004.1 |
| 20260505115624 | 60 | 130 | 1.0 | 1.0 | 0.00 | 0.00 | 0.00 | 81 | 1003.7 |
| 20260505115121 | 59 | 204 | 1.0 | 2.0 | 0.00 | 0.00 | 0.00 | 82 | 1003.8 |
| 20260505114618 | 59 | 254 | 1.0 | 1.0 | 0.00 | 0.00 | 0.00 | 81 | 1004.1 |
| 20260505114115 | 60 | 262 | 2.0 | 2.0 | 0.00 | 0.00 | 0.00 | 81 | 1004.0 |
| 20260505113611 | 60 | 257 | 3.0 | 5.0 | 0.00 | 0.00 | 0.00 | 80 | 1004.2 |
| 20260505113108 | 60 | 261 | 5.0 | 6.0 | 0.00 | 0.00 | 0.00 | 79 | 1004.3 |
| 20260505112604 | 60 | 182 | 4.0 | 6.0 | 0.00 | 0.00 | 0.00 | 79 | 1004.4 |
| 20260505112102 | 60 | 271 | 1.0 | 1.0 | 0.00 | 0.00 | 0.00 | 78 | 1004.1 |
| 20260505111556 | 60 | 256 | 1.0 | 1.0 | 0.00 | 0.00 | 0.00 | 77 | 1004.2 |
| 20260505111052 | 60 | 250 | 0.0 | 0.0 | 0.00 | 0.00 | 0.00 | 77 | 1004.1 |
| 20260505110549 | 60 | 247 | 1.0 | 1.0 | 0.00 | 0.00 | 0.00 | 77 | 1004.1 |
| 20260505102021 | 62 | 257 | 3.0 | 3.0 | 0.00 | 0.00 | 0.00 | 73 | 1004.3 |
| 20260505101520 | 62 | 266 | 4.0 | 6.0 | 0.00 | 0.00 | 0.00 | 73 | 1004.2 |
| 20260505101016 | 62 | 257 | 3.0 | 5.0 | 0.00 | 0.00 | 0.00 | 73 | 1004.4 |
| 20260505100513 | 62 | 271 | 3.0 | 3.0 | 0.00 | 0.00 | 0.00 | 72 | 1004.0 |
| 20260505100010 | 62 | 250 | 4.0 | 5.0 | 0.00 | 0.00 | 0.00 | 72 | 1004.2 |
| 20260505095506 | 62 | 252 | 3.0 | 5.0 | 0.00 | 0.00 | 0.00 | 71 | 1004.2 |
| 20260505095002 | 62 | 239 | 5.0 | 7.0 | 0.00 | 0.00 | 0.00 | 71 | 1004.3 |
| 20260505094459 | 62 | 256 | 3.0 | 3.0 | 0.00 | 0.00 | 0.00 | 71 | 1004.1 |
| 20260505093955 | 62 | 311 | 4.0 | 6.0 | 0.00 | 0.00 | 0.00 | 70 | 1004.0 |
| 20260505093452 | 62 | 263 | 5.0 | 6.0 | 0.00 | 0.00 | 0.00 | 70 | 1003.9 |
| 20260505092949 | 62 | 252 | 2.0 | 3.0 | 0.00 | 0.00 | 0.00 | 70 | 1003.9 |
| 20260505092446 | 62 | 282 | 3.0 | 3.0 | 0.00 | 0.00 | 0.00 | 70 | 1003.9 |
| 20260505091944 | 62 | 220 | 4.0 | 5.0 | 0.00 | 0.00 | 0.00 | 70 | 1003.7 |
| 20260505091441 | 63 | 265 | 3.0 | 3.0 | 0.00 | 0.00 | 0.00 | 70 | 1004.0 |
| 20260505090939 | 63 | 246 | 5.0 | 6.0 | 0.00 | 0.00 | 0.00 | 69 | 1003.8 |
| 20260505090437 | 63 | 267 | 4.0 | 5.0 | 0.00 | 0.00 | 0.00 | 69 | 1004.0 |
| 20260505085934 | 63 | 278 | 4.0 | 6.0 | 0.00 | 0.00 | 0.00 | 69 | 1003.7 |
| 20260505085432 | 63 | 267 | 6.0 | 7.0 | 0.00 | 0.00 | 0.00 | 68 | 1003.7 |
| 20260505084930 | 64 | 255 | 5.0 | 7.0 | 0.00 | 0.00 | 0.00 | 68 | 1003.7 |
| 20260505084428 | 64 | 255 | 5.0 | 7.0 | 0.00 | 0.00 | 0.00 | 67 | 1003.7 |
| 20260505083926 | 64 | 233 | 4.0 | 6.0 | 0.00 | 0.00 | 0.00 | 67 | 1003.4 |
| 20260505083423 | 64 | 311 | 3.0 | 3.0 | 0.00 | 0.00 | 0.00 | 67 | 1003.3 |
| 20260505082919 | 64 | 269 | 3.0 | 3.0 | 0.00 | 0.00 | 0.00 | 67 | 1003.3 |
| 20260505082415 | 64 | 262 | 5.0 | 6.0 | 0.00 | 0.00 | 0.00 | 67 | 1003.2 |
| 20260505081912 | 64 | 259 | 2.0 | 2.0 | 0.00 | 0.00 | 0.00 | 66 | 1003.1 |
| 20260505081409 | 64 | 274 | 4.0 | 6.0 | 0.00 | 0.00 | 0.00 | 66 | 1002.9 |
| 20260505080905 | 64 | 176 | 5.0 | 6.0 | 0.00 | 0.00 | 0.00 | 66 | 1002.7 |
| 20260505080401 | 65 | 280 | 5.0 | 7.0 | 0.00 | 0.00 | 0.00 | 66 | 1002.9 |
| 20260505075857 | 65 | 234 | 1.0 | 1.0 | 0.00 | 0.00 | 0.00 | 66 | 1002.8 |
| 20260505075354 | 65 | 246 | 5.0 | 6.0 | 0.00 | 0.00 | 0.00 | 66 | 1002.8 |
| 20260505074851 | 65 | 245 | 3.0 | 5.0 | 0.00 | 0.00 | 0.00 | 66 | 1002.8 |
| 20260505074348 | 65 | 305 | 5.0 | 7.0 | 0.00 | 0.00 | 0.00 | 66 | 1002.9 |
| 20260505073846 | 65 | 117 | 4.0 | 5.0 | 0.00 | 0.00 | 0.00 | 66 | 1002.7 |
| 20260505073344 | 64 | 260 | 4.0 | 5.0 | 0.00 | 0.00 | 0.00 | 66 | 1003.0 |
| 20260505072840 | 64 | 271 | 5.0 | 9.0 | 0.00 | 0.00 | 0.00 | 66 | 1002.8 |
| 20260505072336 | 64 | 240 | 4.0 | 5.0 | 0.00 | 0.00 | 0.00 | 66 | 1002.7 |
| 20260505071832 | 65 | 236 | 6.0 | 9.0 | 0.00 | 0.00 | 0.00 | 66 | 1002.8 |
| 20260505071329 | 65 | 240 | 1.0 | 2.0 | 0.00 | 0.00 | 0.00 | 66 | 1002.6 |
| 20260505070828 | 64 | 180 | 4.0 | 6.0 | 0.00 | 0.00 | 0.00 | 66 | 1002.8 |
| 20260505070324 | 64 | 253 | 9.0 | 11.0 | 0.00 | 0.00 | 0.00 | 66 | 1002.8 |
| 20260505065819 | 65 | 224 | 2.0 | 2.0 | 0.00 | 0.00 | 0.00 | 66 | 1002.7 |
| 20260505065316 | 65 | 267 | 3.0 | 6.0 | 0.00 | 0.00 | 0.00 | 66 | 1002.6 |
| 20260505064813 | 65 | 312 | 3.0 | 3.0 | 0.00 | 0.00 | 0.00 | 66 | 1002.7 |
| 20260505064310 | 65 | 256 | 2.0 | 2.0 | 0.00 | 0.00 | 0.00 | 66 | 1002.4 |
| 20260505063808 | 65 | 282 | 3.0 | 6.0 | 0.00 | 0.00 | 0.00 | 66 | 1002.6 |
| 20260505063304 | 65 | 266 | 1.0 | 1.0 | 0.00 | 0.00 | 0.00 | 66 | 1002.4 |
| 20260505062800 | 65 | 106 | 1.0 | 2.0 | 0.00 | 0.00 | 0.00 | 66 | 1002.5 |
| 20260505062258 | 65 | 269 | 4.0 | 5.0 | 0.00 | 0.00 | 0.00 | 66 | 1002.8 |
| 20260505061755 | 65 | 250 | 3.0 | 5.0 | 0.00 | 0.00 | 0.00 | 66 | 1002.6 |
| 20260505061252 | 65 | 256 | 5.0 | 7.0 | 0.00 | 0.00 | 0.00 | 65 | 1002.6 |
| 20260505060750 | 65 | 259 | 5.0 | 6.0 | 0.00 | 0.00 | 0.00 | 65 | 1002.6 |
| 20260505060247 | 65 | 281 | 2.0 | 2.0 | 0.00 | 0.00 | 0.00 | 66 | 1002.6 |
| 20260505055742 | 66 | 304 | 3.0 | 5.0 | 0.00 | 0.00 | 0.00 | 65 | 1002.5 |
| 20260505055238 | 65 | 209 | 7.0 | 10.0 | 0.00 | 0.00 | 0.00 | 65 | 1002.6 |
| 20260505054736 | 65 | 247 | 1.0 | 1.0 | 0.00 | 0.00 | 0.00 | 65 | 1002.8 |
| 20260505054234 | 66 | 254 | 2.0 | 2.0 | 0.00 | 0.00 | 0.00 | 66 | 1002.9 |
| 20260505053732 | 66 | 270 | 3.0 | 7.0 | 0.00 | 0.00 | 0.00 | 65 | 1002.9 |
| 20260505053228 | 66 | 205 | 3.0 | 5.0 | 0.00 | 0.00 | 0.00 | 65 | 1003.1 |
| 20260505052725 | 66 | 270 | 1.0 | 2.0 | 0.00 | 0.00 | 0.00 | 66 | 1003.1 |
| 20260505052222 | 66 | 206 | 3.0 | 5.0 | 0.00 | 0.00 | 0.00 | 65 | 1003.0 |
| 20260505051719 | 66 | 261 | 5.0 | 6.0 | 0.00 | 0.00 | 0.00 | 64 | 1003.0 |
| 20260505051212 | 66 | 238 | 4.0 | 5.0 | 0.00 | 0.00 | 0.00 | 65 | 1003.3 |
| 20260505050709 | 66 | 242 | 2.0 | 2.0 | 0.00 | 0.00 | 0.00 | 64 | 1003.0 |
| 20260505050207 | 66 | 165 | 3.0 | 3.0 | 0.00 | 0.00 | 0.00 | 64 | 1003.3 |
| 20260505041637 | 66 | 241 | 4.0 | 5.0 | 0.00 | 0.00 | 0.00 | 66 | 1003.3 |
| 20260505041134 | 66 | 161 | 3.0 | 3.0 | 0.00 | 0.00 | 0.00 | 66 | 1003.3 |
| 20260505040631 | 66 | 50 | 2.0 | 5.0 | 0.00 | 0.00 | 0.00 | 66 | 1003.1 |
| 20260505040128 | 66 | 182 | 1.0 | 1.0 | 0.00 | 0.00 | 0.00 | 66 | 1003.2 |
| 20260505035625 | 66 | 244 | 1.0 | 1.0 | 0.00 | 0.00 | 0.00 | 67 | 1003.3 |
| 20260505035121 | 66 | 186 | 3.0 | 3.0 | 0.00 | 0.00 | 0.00 | 67 | 1003.2 |
| 20260505034618 | 66 | 276 | 2.0 | 2.0 | 0.00 | 0.00 | 0.00 | 68 | 1003.3 |
| 20260505034114 | 65 | 184 | 2.0 | 3.0 | 0.00 | 0.00 | 0.00 | 67 | 1003.3 |
| 20260505033611 | 65 | 236 | 3.0 | 5.0 | 0.00 | 0.00 | 0.00 | 68 | 1003.3 |
| 20260505033110 | 65 | 241 | 1.0 | 2.0 | 0.00 | 0.00 | 0.00 | 68 | 1003.3 |
| 20260505032607 | 65 | 238 | 3.0 | 3.0 | 0.00 | 0.00 | 0.00 | 69 | 1003.2 |
| 20260505032103 | 65 | 238 | 2.0 | 2.0 | 0.00 | 0.00 | 0.00 | 70 | 1003.2 |
| 20260505031601 | 65 | 136 | 2.0 | 3.0 | 0.00 | 0.00 | 0.00 | 70 | 1003.3 |
| 20260505031057 | 65 | 262 | 1.0 | 2.0 | 0.00 | 0.00 | 0.00 | 70 | 1003.3 |
| 20260505030554 | 65 | 242 | 5.0 | 6.0 | 0.00 | 0.00 | 0.00 | 70 | 1003.2 |
| 20260505030050 | 65 | 253 | 3.0 | 3.0 | 0.00 | 0.00 | 0.00 | 71 | 1003.3 |
| 20260505025546 | 65 | 266 | 1.0 | 1.0 | 0.00 | 0.00 | 0.00 | 71 | 1003.0 |
| 20260505025045 | 65 | 210 | 3.0 | 8.0 | 0.00 | 0.00 | 0.00 | 71 | 1003.1 |
| 20260505024542 | 64 | 204 | 4.0 | 6.0 | 0.00 | 0.00 | 0.00 | 72 | 1003.1 |
| 20260505024039 | 64 | 46 | 1.0 | 2.0 | 0.00 | 0.00 | 0.00 | 72 | 1003.0 |
| 20260505023536 | 64 | 164 | 2.0 | 3.0 | 0.00 | 0.00 | 0.00 | 72 | 1002.9 |
| 20260505023033 | 64 | 254 | 2.0 | 2.0 | 0.00 | 0.00 | 0.00 | 72 | 1002.9 |
| 20260505022531 | 64 | 216 | 2.0 | 2.0 | 0.00 | 0.00 | 0.00 | 72 | 1003.1 |
| 20260505022028 | 64 | 200 | 1.0 | 1.0 | 0.00 | 0.00 | 0.00 | 72 | 1003.0 |
| 20260505021524 | 64 | 176 | 1.0 | 2.0 | 0.00 | 0.00 | 0.00 | 72 | 1003.1 |
| 20260505021021 | 64 | 216 | 3.0 | 5.0 | 0.00 | 0.00 | 0.00 | 72 | 1003.1 |
| 20260505020520 | 64 | 233 | 3.0 | 6.0 | 0.00 | 0.00 | 0.00 | 73 | 1003.0 |
| 20260505020018 | 64 | 274 | 0.0 | 1.0 | 0.00 | 0.00 | 0.00 | 74 | 1003.1 |
| 20260505015515 | 64 | 241 | 0.0 | 0.0 | 0.00 | 0.00 | 0.00 | 74 | 1003.0 |
| 20260505015012 | 64 | 249 | 0.0 | 1.0 | 0.00 | 0.00 | 0.00 | 76 | 1003.1 |
| 20260505014509 | 64 | 192 | 2.0 | 2.0 | 0.00 | 0.00 | 0.00 | 74 | 1002.9 |
| 20260505014006 | 64 | 212 | 2.0 | 2.0 | 0.00 | 0.00 | 0.00 | 73 | 1002.7 |
| 20260505013503 | 64 | 173 | 3.0 | 3.0 | 0.00 | 0.00 | 0.00 | 74 | 1002.8 |
| 20260505013000 | 64 | 220 | 0.0 | 1.0 | 0.00 | 0.00 | 0.00 | 74 | 1002.8 |
| 20260505012458 | 64 | 226 | 1.0 | 1.0 | 0.00 | 0.00 | 0.00 | 73 | 1002.8 |
| 20260505011955 | 64 | 187 | 2.0 | 5.0 | 0.00 | 0.00 | 0.00 | 74 | 1002.7 |
| 20260505011451 | 64 | 169 | 3.0 | 5.0 | 0.00 | 0.00 | 0.00 | 74 | 1002.6 |
| 20260505010948 | 64 | 218 | 2.0 | 2.0 | 0.00 | 0.00 | 0.00 | 73 | 1002.8 |
| 20260505010443 | 64 | 206 | 2.0 | 2.0 | 0.00 | 0.00 | 0.00 | 72 | 1002.7 |
| 20260505005940 | 64 | 167 | 2.0 | 2.0 | 0.00 | 0.00 | 0.00 | 72 | 1002.8 |
| 20260505005436 | 64 | 231 | 0.0 | 1.0 | 0.00 | 0.00 | 0.00 | 71 | 1002.7 |
| 20260505004934 | 65 | 193 | 2.0 | 2.0 | 0.00 | 0.00 | 0.00 | 70 | 1002.8 |
| 20260505004431 | 65 | 211 | 1.0 | 2.0 | 0.00 | 0.00 | 0.00 | 70 | 1002.6 |
| 20260505003928 | 65 | 229 | 1.0 | 2.0 | 0.00 | 0.00 | 0.00 | 69 | 1002.8 |
| 20260505003425 | 66 | 235 | 1.0 | 1.0 | 0.00 | 0.00 | 0.00 | 67 | 1002.7 |
| 20260505002921 | 66 | 238 | 0.0 | 1.0 | 0.00 | 0.00 | 0.00 | 67 | 1002.6 |
| 20260505002417 | 67 | 188 | 2.0 | 2.0 | 0.00 | 0.00 | 0.00 | 66 | 1002.6 |
| 20260505001916 | 67 | 242 | 1.0 | 1.0 | 0.00 | 0.00 | 0.00 | 65 | 1002.7 |
| 20260505001413 | 68 | 163 | 2.0 | 2.0 | 0.00 | 0.00 | 0.00 | 64 | 1002.6 |
| 20260505000910 | 68 | 179 | 4.0 | 5.0 | 0.00 | 0.00 | 0.00 | 64 | 1002.6 |
| 20260505000408 | 68 | 241 | 1.0 | 1.0 | 0.00 | 0.00 | 0.00 | 63 | 1002.6 |
| 20260504235904 | 68 | 227 | 0.0 | 1.0 | 0.00 | 0.00 | 0.00 | 64 | 1002.6 |
| 20260504235402 | 69 | 224 | 2.0 | 2.0 | 0.00 | 0.00 | 0.00 | 63 | 1002.6 |
| 20260504234857 | 69 | 232 | 2.0 | 2.0 | 0.00 | 0.00 | 0.00 | 62 | 1002.6 |
| 20260504234355 | 69 | 149 | 4.0 | 5.0 | 0.00 | 0.00 | 0.00 | 62 | 1002.7 |
| 20260504233852 | 69 | 206 | 5.0 | 5.0 | 0.00 | 0.00 | 0.00 | 62 | 1002.9 |
| 20260504233348 | 69 | 199 | 3.0 | 3.0 | 0.00 | 0.00 | 0.00 | 63 | 1002.7 |
| 20260504232844 | 68 | 238 | 0.0 | 0.0 | 0.00 | 0.00 | 0.00 | 63 | 1002.9 |
| 20260504232342 | 68 | 225 | 1.0 | 1.0 | 0.00 | 0.00 | 0.00 | 64 | 1002.8 |
| 20260504231838 | 67 | 178 | 1.0 | 1.0 | 0.00 | 0.00 | 0.00 | 64 | 1003.0 |
| 20260504231335 | 67 | 231 | 3.0 | 3.0 | 0.00 | 0.00 | 0.00 | 65 | 1003.0 |
| 20260504230831 | 68 | 247 | 3.0 | 3.0 | 0.00 | 0.00 | 0.00 | 64 | 1003.1 |
| 20260504230329 | 68 | 147 | 1.0 | 1.0 | 0.00 | 0.00 | 0.00 | 64 | 1003.0 |
| 20260504225827 | 68 | 155 | 1.0 | 2.0 | 0.00 | 0.00 | 0.00 | 64 | 1003.1 |
| 20260504225323 | 68 | 239 | 1.0 | 2.0 | 0.00 | 0.00 | 0.00 | 64 | 1003.2 |
| 20260504224821 | 69 | 216 | 5.0 | 7.0 | 0.00 | 0.00 | 0.00 | 61 | 1003.3 |
| 20260504224318 | 69 | 233 | 1.0 | 2.0 | 0.00 | 0.00 | 0.00 | 60 | 1003.2 |
| 20260504223815 | 69 | 267 | 3.0 | 3.0 | 0.00 | 0.00 | 0.00 | 61 | 1003.3 |
| 20260504223310 | 69 | 210 | 3.0 | 5.0 | 0.00 | 0.00 | 0.00 | 61 | 1003.4 |
| 20260504222807 | 68 | 277 | 4.0 | 5.0 | 0.00 | 0.00 | 0.00 | 63 | 1003.4 |
| 20260504222305 | 69 | 331 | 4.0 | 7.0 | 0.00 | 0.00 | 0.00 | 60 | 1003.3 |
| 20260504221802 | 70 | 241 | 3.0 | 5.0 | 0.00 | 0.00 | 0.00 | 58 | 1003.6 |
| 20260504221259 | 69 | 192 | 4.0 | 6.0 | 0.00 | 0.00 | 0.00 | 59 | 1003.5 |
| 20260504220755 | 69 | 273 | 2.0 | 3.0 | 0.00 | 0.00 | 0.00 | 60 | 1003.5 |
| 20260504220252 | 70 | 226 | 4.0 | 8.0 | 0.00 | 0.00 | 0.00 | 58 | 1003.7 |
| 20260504215750 | 68 | 248 | 1.0 | 2.0 | 0.00 | 0.00 | 0.00 | 61 | 1003.6 |
| 20260504215246 | 69 | 257 | 4.0 | 6.0 | 0.00 | 0.00 | 0.00 | 60 | 1003.4 |
| 20260504214742 | 70 | 256 | 5.0 | 7.0 | 0.00 | 0.00 | 0.00 | 56 | 1003.4 |
| 20260504214238 | 70 | 202 | 4.0 | 6.0 | 0.00 | 0.00 | 0.00 | 56 | 1003.7 |
| 20260504213736 | 70 | 267 | 7.0 | 9.0 | 0.00 | 0.00 | 0.00 | 56 | 1003.4 |
| 20260504213232 | 70 | 267 | 4.0 | 7.0 | 0.00 | 0.00 | 0.00 | 60 | 1003.6 |
| 20260504212729 | 70 | 243 | 3.0 | 3.0 | 0.00 | 0.00 | 0.00 | 59 | 1003.2 |
| 20260504212225 | 70 | 269 | 1.0 | 1.0 | 0.00 | 0.00 | 0.00 | 59 | 1003.0 |
| 20260504211723 | 70 | 317 | 2.0 | 2.0 | 0.00 | 0.00 | 0.00 | 58 | 1003.0 |
| 20260504211219 | 69 | 227 | 1.0 | 2.0 | 0.00 | 0.00 | 0.00 | 61 | 1003.1 |
| 20260504210717 | 68 | 260 | 6.0 | 8.0 | 0.00 | 0.00 | 0.00 | 60 | 1003.5 |
| 20260504210214 | 68 | 303 | 5.0 | 8.0 | 0.00 | 0.00 | 0.00 | 60 | 1003.2 |
| 20260504205711 | 68 | 282 | 5.0 | 7.0 | 0.00 | 0.00 | 0.00 | 61 | 1003.5 |
| 20260504205208 | 68 | 258 | 5.0 | 8.0 | 0.00 | 0.00 | 0.00 | 63 | 1003.9 |
| 20260504204706 | 69 | 328 | 1.0 | 1.0 | 0.00 | 0.00 | 0.00 | 63 | 1003.9 |
| 20260504204205 | 69 | 261 | 5.0 | 8.0 | 0.00 | 0.00 | 0.00 | 61 | 1003.9 |
| 20260504203703 | 69 | 282 | 8.0 | 8.0 | 0.00 | 0.00 | 0.00 | 61 | 1004.0 |
| 20260504203200 | 69 | 286 | 4.0 | 6.0 | 0.00 | 0.00 | 0.00 | 61 | 1004.1 |
| 20260504202654 | 69 | 259 | 7.0 | 11.0 | 0.00 | 0.00 | 0.00 | 60 | 1004.2 |
| 20260504202152 | 70 | 259 | 9.0 | 10.0 | 0.00 | 0.00 | 0.00 | 58 | 1004.2 |
| 20260504201649 | 71 | 273 | 9.0 | 10.0 | 0.00 | 0.00 | 0.00 | 58 | 1004.2 |
| 20260504201146 | 72 | 243 | 7.0 | 9.0 | 0.00 | 0.00 | 0.00 | 57 | 1004.2 |
| 20260504200643 | 73 | 236 | 6.0 | 7.0 | 0.00 | 0.00 | 0.00 | 54 | 1004.1 |
| 20260504200140 | 73 | 319 | 6.0 | 10.0 | 0.00 | 0.00 | 0.00 | 56 | 1004.1 |
| 20260504195636 | 72 | 264 | 7.0 | 8.0 | 0.00 | 0.00 | 0.00 | 56 | 1004.0 |
| 20260504195132 | 72 | 268 | 8.0 | 10.0 | 0.00 | 0.00 | 0.00 | 56 | 1004.1 |
| 20260504194629 | 71 | 290 | 4.0 | 5.0 | 0.00 | 0.00 | 0.00 | 57 | 1004.3 |
| 20260504194125 | 71 | 209 | 5.0 | 8.0 | 0.00 | 0.00 | 0.00 | 57 | 1004.3 |
| 20260504193621 | 72 | 245 | 6.0 | 10.0 | 0.00 | 0.00 | 0.00 | 55 | 1004.0 |
| 20260504193120 | 72 | 272 | 7.0 | 9.0 | 0.00 | 0.00 | 0.00 | 56 | 1004.0 |
| 20260504192618 | 72 | 180 | 7.0 | 10.0 | 0.00 | 0.00 | 0.00 | 55 | 1003.9 |
| 20260504192115 | 72 | 301 | 4.0 | 6.0 | 0.00 | 0.00 | 0.00 | 56 | 1003.9 |
| 20260504191614 | 72 | 234 | 3.0 | 8.0 | 0.00 | 0.00 | 0.00 | 56 | 1004.2 |
| 20260504191109 | 71 | 180 | 4.0 | 5.0 | 0.00 | 0.00 | 0.00 | 57 | 1004.1 |
| 20260504190606 | 71 | 283 | 7.0 | 8.0 | 0.00 | 0.00 | 0.00 | 56 | 1004.0 |
| 20260504185559 | 71 | 151 | 3.0 | 3.0 | 0.00 | 0.00 | 0.00 | 58 | 1004.1 |
| 20260504185055 | 71 | 243 | 3.0 | 3.0 | 0.00 | 0.00 | 0.00 | 57 | 1004.3 |
| 20260504184551 | 71 | 247 | 3.0 | 5.0 | 0.00 | 0.00 | 0.00 | 55 | 1004.2 |
| 20260504184046 | 72 | 237 | 3.0 | 5.0 | 0.00 | 0.00 | 0.00 | 56 | 1004.4 |
| 20260504183544 | 71 | 270 | 4.0 | 6.0 | 0.00 | 0.00 | 0.00 | 58 | 1004.3 |
| 20260504183042 | 70 | 246 | 5.0 | 7.0 | 0.00 | 0.00 | 0.00 | 58 | 1004.4 |
| 20260504182539 | 71 | 194 | 2.0 | 2.0 | 0.00 | 0.00 | 0.00 | 60 | 1004.4 |
| 20260504182036 | 70 | 309 | 5.0 | 8.0 | 0.00 | 0.00 | 0.00 | 57 | 1004.2 |
| 20260504181533 | 70 | 273 | 5.0 | 6.0 | 0.00 | 0.00 | 0.00 | 58 | 1004.4 |
| 20260504181031 | 70 | 172 | 5.0 | 7.0 | 0.00 | 0.00 | 0.00 | 59 | 1004.4 |
| 20260504180530 | 70 | 238 | 5.0 | 8.0 | 0.00 | 0.00 | 0.00 | 58 | 1004.5 |
| 20260504180028 | 69 | 253 | 3.0 | 5.0 | 0.00 | 0.00 | 0.00 | 60 | 1004.6 |
| 20260504175525 | 69 | 97 | 5.0 | 7.0 | 0.00 | 0.00 | 0.00 | 60 | 1004.6 |
| 20260504175022 | 69 | 299 | 5.0 | 7.0 | 0.00 | 0.00 | 0.00 | 60 | 1004.5 |
| 20260504174520 | 69 | 265 | 5.0 | 6.0 | 0.00 | 0.00 | 0.00 | 58 | 1004.5 |
| 20260504174017 | 69 | 140 | 8.0 | 13.0 | 0.00 | 0.00 | 0.00 | 61 | 1004.7 |
| 20260504173513 | 68 | 254 | 4.0 | 6.0 | 0.00 | 0.00 | 0.00 | 62 | 1004.6 |
| 20260504173011 | 68 | 29 | 4.0 | 5.0 | 0.00 | 0.00 | 0.00 | 61 | 1004.7 |
| 20260504172507 | 68 | 255 | 8.0 | 9.0 | 0.00 | 0.00 | 0.00 | 60 | 1004.7 |
| 20260504172003 | 68 | 166 | 6.0 | 8.0 | 0.00 | 0.00 | 0.00 | 61 | 1004.6 |
| 20260504171500 | 67 | 217 | 7.0 | 10.0 | 0.00 | 0.00 | 0.00 | 61 | 1005.0 |
| 20260504170957 | 67 | 213 | 2.0 | 3.0 | 0.00 | 0.00 | 0.00 | 63 | 1005.0 |
| 20260504170453 | 67 | 219 | 5.0 | 7.0 | 0.00 | 0.00 | 0.00 | 62 | 1005.0 |
| 20260504160413 | 64 | 282 | 4.0 | 5.0 | 0.00 | 0.00 | 0.00 | 64 | 1005.7 |
| 20260504150837 | 61 | 241 | 2.0 | 2.0 | 0.00 | 0.00 | 0.00 | 67 | 1006.0 |
| 20260504150334 | 61 | 308 | 4.0 | 5.0 | 0.00 | 0.00 | 0.00 | 64 | 1006.0 |
| 20260504141304 | 59 | 207 | 3.0 | 3.0 | 0.00 | 0.00 | 0.00 | 67 | 1006.2 |
| 20260504140800 | 58 | 222 | 3.0 | 6.0 | 0.00 | 0.00 | 0.00 | 67 | 1006.3 |
| 20260504140256 | 58 | 266 | 9.0 | 13.0 | 0.00 | 0.00 | 0.00 | 66 | 1006.5 |